time_stamp(utc),avg(mph),gust(mph),direction(deg),12m_air_temp(f),sonic_u(cm/s),sonic_v(cm/s),sonic_w(cm/s),pressure,2m_air_temp(f),pyranometer(W/m^2)
"2020-02-09 00:00:53+00",8.1,9.1,,39.4,157,-923,502,1026.35,36.1,0
"2020-02-09 00:05:53+00",8.0,9.0,,39.5,18,-661,375,1026.46,36,0
"2020-02-09 00:10:53+00",8.9,8.9,,39.5,96,-848,489,1026.53,36,0
"2020-02-09 00:15:53+00",8.3,9.3,,39.6,153,-903,525,1026.54,36,0
"2020-02-09 00:20:53+00",7.9,8.9,,39.6,14,-634,362,1026.57,36.1,0
"2020-02-09 00:25:53+00",7.1,7.1,,39.6,-101,-379,188,1026.66,36.1,0
"2020-02-09 00:30:53+00",6.5,7.5,,39.4,-82,-422,193,1026.66,35.9,0
"2020-02-09 00:35:53+00",6.3,7.3,,39.3,-121,-363,157,1026.76,35.6,0
"2020-02-09 00:40:53+00",6.4,7.4,,39.2,-95,-417,178,1026.71,35.3,0
"2020-02-09 00:45:53+00",6.3,8.3,,39.2,-122,-319,137,1026.78,35.2,0
"2020-02-09 00:50:53+00",6.7,6.7,,39,-113,-342,163,1026.76,35.1,0
"2020-02-09 00:55:53+00",6.5,7.5,,39,-116,-320,167,1026.89,35,0
"2020-02-09 01:00:53+00",7.2,8.2,,39,-67,-456,239,1026.95,35,0
"2020-02-09 01:05:53+00",7.3,8.3,,39,-68,-472,231,1026.97,34.9,0
"2020-02-09 01:10:53+00",6.3,6.3,,38.9,-88,-396,185,1027.07,34.7,0
"2020-02-09 01:15:53+00",7.9,8.9,,38.9,-20,-606,309,1027.11,34.6,0
"2020-02-09 01:20:53+00",7.5,8.5,,39.2,-127,-389,213,1027.05,34.6,0
"2020-02-09 01:25:53+00",7.6,7.6,,39.2,-3,-584,330,1027.04,34.6,0
"2020-02-09 01:30:53+00",7.3,8.3,,39.1,-16,-588,294,1027.19,34.7,0
"2020-02-09 01:35:53+00",6.4,7.4,,38.9,-96,-416,186,1027.24,34.6,0
"2020-02-09 01:40:53+00",6.6,6.6,,38.9,-129,-341,154,1027.24,34.4,0
"2020-02-09 01:45:53+00",6.4,7.4,,38.9,-120,-335,152,1027.26,34.3,0
"2020-02-09 01:50:53+00",5.8,6.8,,38.8,-158,-261,102,1027.29,34.2,0
"2020-02-09 01:55:53+00",6.1,6.1,,38.8,-130,-336,139,1027.33,34.2,0
"2020-02-09 02:00:53+00",5.7,6.7,,38.9,-117,-300,131,1027.31,34.2,0
"2020-02-09 02:05:53+00",5.4,5.4,,39,-149,-225,77,1027.45,34.2,0
"2020-02-09 02:10:53+00",5.7,5.7,,39.1,-118,-260,91,1027.47,34.4,0
"2020-02-09 02:15:53+00",4.9,5.9,,39.1,-135,-190,52,1027.59,34.7,0
"2020-02-09 02:20:53+00",4.0,5.0,,38.7,-71,-176,25,1027.65,35,0
"2020-02-09 02:25:53+00",5.1,6.1,,38.3,-65,-234,23,1027.71,35.4,0
"2020-02-09 02:30:53+00",5.3,5.3,,38.6,-104,-204,5,1027.66,35.7,0
"2020-02-09 02:35:53+00",4.6,5.6,,38.4,-70,-206,24,1027.77,36,0
"2020-02-09 02:40:53+00",4.1,5.1,,38.4,-108,-163,17,1027.75,36.1,0
"2020-02-09 02:45:53+00",3.5,3.5,,38.5,-93,-134,14,1027.86,36,0
"2020-02-09 02:50:53+00",3.7,4.7,,38.4,-50,-161,16,1027.81,36.1,0
"2020-02-09 02:55:53+00",4.5,4.5,,38.3,-60,-205,27,1027.92,36.2,0
"2020-02-09 03:00:53+00",5.1,6.1,,38.1,-69,-220,16,1027.92,36.2,0
"2020-02-09 03:05:53+00",4.5,4.5,,38.1,-75,-187,13,1027.97,36,0
"2020-02-09 03:10:53+00",4.5,4.5,,38.1,-74,-186,18,1027.99,35.8,0
"2020-02-09 03:15:53+00",5.1,6.1,,38.2,-94,-216,17,1027.96,35.5,0
"2020-02-09 03:20:53+00",5.1,6.1,,38.3,-89,-244,32,1028.01,35.4,0
"2020-02-09 03:25:53+00",4.2,4.2,,38.1,-128,-156,8,1027.98,35.2,0
"2020-02-09 03:30:53+00",4.1,4.1,,38.1,-127,-144,5,1028.11,35,0
"2020-02-09 03:35:53+00",4.2,4.2,,38.2,-96,-157,30,1028.12,34.9,0
"2020-02-09 03:40:53+00",3.1,3.1,,38.3,-106,-86,12,1028.12,34.8,0
"2020-02-09 03:45:53+00",3.3,4.3,,38.7,-103,-96,27,1028.07,34.8,0
"2020-02-09 03:50:53+00",3.0,3.0,,38.8,-101,-82,14,1028.15,34.9,0
"2020-02-09 03:55:53+00",3.1,3.1,,38.8,-68,-141,44,1028.29,35,0
"2020-02-09 04:00:53+00",2.7,2.7,,38.7,-101,-39,-8,1028.24,35.1,0
"2020-02-09 04:05:53+00",3.0,3.0,,38.6,-66,-126,29,1028.27,35.3,0
"2020-02-09 04:10:53+00",4.2,5.2,,38.6,-106,-145,-4,1028.38,35.6,0
"2020-02-09 04:15:53+00",10.0,11.0,,38,16,-718,202,1028.35,35.5,0
"2020-02-09 04:20:53+00",6.2,6.2,,37.9,-116,-251,12,1028.48,34.6,0
"2020-02-09 04:25:53+00",7.4,8.4,,38.2,-113,-327,26,1028.62,34.2,0
"2020-02-09 04:30:53+00",6.5,7.5,,38.4,-57,-347,51,1028.53,34.3,0
"2020-02-09 04:35:53+00",6.6,6.6,,38.5,-79,-292,11,1028.62,34.8,0
"2020-02-09 04:40:53+00",5.4,5.4,,38.9,-99,-195,-10,1028.62,35.4,0
"2020-02-09 04:45:53+00",6.0,7.0,,38.9,-101,-236,-1,1028.69,35.7,0
"2020-02-09 04:50:53+00",5.7,5.7,,39.1,-95,-229,7,1028.73,35.7,0
"2020-02-09 04:55:53+00",5.4,5.4,,39.3,-105,-195,-8,1028.79,35.6,0
"2020-02-09 05:00:53+00",5.8,5.8,,39.4,-123,-182,-26,1028.74,35.8,0
"2020-02-09 05:05:53+00",5.8,5.8,,39.5,-92,-226,1,1028.85,35.8,0
"2020-02-09 05:10:53+00",6.1,6.1,,39.3,-105,-219,-12,1028.75,35.8,0
"2020-02-09 05:15:53+00",6.0,6.0,,39,-65,-243,1,1028.81,35.9,0
"2020-02-09 05:20:53+00",6.4,6.4,,39.2,-118,-177,-47,1028.86,36.2,0
"2020-02-09 05:25:53+00",6.3,6.3,,39.4,-101,-202,-27,1028.83,36.3,0
"2020-02-09 05:30:53+00",6.5,7.5,,39.4,-143,-159,-64,1028.95,36.3,0
"2020-02-09 05:35:53+00",7.0,7.0,,39.6,-150,-157,-73,1028.94,36.4,0
"2020-02-09 05:40:53+00",7.0,7.0,,39.7,-168,-134,-90,1028.92,36.4,0
"2020-02-09 05:45:53+00",6.5,7.5,,39.9,-164,-65,-114,1028.9,36.4,0
"2020-02-09 05:50:53+00",5.7,5.7,,40.1,-125,-82,-82,1028.81,36.9,0
"2020-02-09 05:55:53+00",5.9,6.9,,39.9,-121,-102,-70,1028.77,37,0
"2020-02-09 06:00:53+00",5.6,6.6,,39.9,-138,-52,-96,1028.79,37.3,0
"2020-02-09 06:05:53+00",4.9,4.9,,39.9,-136,17,-117,1028.78,37.5,0
"2020-02-09 06:10:53+00",4.7,4.7,,40,-115,4,-108,1028.79,37.6,0
"2020-02-09 06:15:53+00",4.4,4.4,,40,-62,-74,-55,1028.85,37.5,0
"2020-02-09 06:20:53+00",4.0,4.0,,40,-52,-84,-38,1028.9,37.3,0
"2020-02-09 06:25:53+00",4.1,5.1,,39.9,-63,-96,-35,1029,37.2,0
"2020-02-09 06:30:53+00",4.6,4.6,,39.9,-99,-40,-78,1029.05,37,0
"2020-02-09 06:35:53+00",4.4,4.4,,39.9,-70,-108,-37,1029.12,37.1,0
"2020-02-09 06:40:53+00",5.4,5.4,,39.9,-76,-144,-39,1029.24,37.3,0
"2020-02-09 06:45:53+00",4.9,4.9,,39.9,-95,-82,-65,1029.35,37.3,0
"2020-02-09 06:50:53+00",5.2,5.2,,40.1,-118,-40,-88,1029.28,37.4,0
"2020-02-09 06:55:53+00",4.8,4.8,,40,-125,-13,-97,1029.37,37.3,0
"2020-02-09 07:00:53+00",5.0,6.0,,40.1,-118,-33,-90,1029.42,37.2,0
"2020-02-09 07:05:53+00",5.3,5.3,,40.1,-137,-5,-114,1029.41,37.2,0
"2020-02-09 07:10:53+00",5.7,5.7,,40,-196,81,-176,1029.36,37.2,0
"2020-02-09 07:15:53+00",6.2,6.2,,40.1,-230,134,-213,1029.46,37.4,0
"2020-02-09 07:20:53+00",5.8,6.8,,40.1,-258,193,-236,1029.42,37.6,0
"2020-02-09 07:25:53+00",5.6,6.6,,40.1,-231,122,-191,1029.5,37.6,0
"2020-02-09 07:30:53+00",5.2,5.2,,40.1,-131,-43,-92,1029.59,37.6,0
"2020-02-09 07:35:53+00",5.5,6.5,,40,-162,-25,-110,1029.56,37.4,0
"2020-02-09 07:40:53+00",6.3,7.3,,40.1,-236,120,-214,1029.63,37.5,0
"2020-02-09 07:45:53+00",6.0,7.0,,40.1,-187,25,-147,1029.58,37.7,0
"2020-02-09 07:50:53+00",5.9,6.9,,40,-175,-1,-132,1029.65,37.9,0
"2020-02-09 07:55:53+00",5.9,5.9,,40,-199,11,-141,1029.69,37.8,0
"2020-02-09 08:00:53+00",6.2,6.2,,40,-180,-39,-120,1029.71,37.6,0
"2020-02-09 08:05:53+00",6.0,7.0,,40,-159,-91,-85,1029.62,37.4,0
"2020-02-09 08:10:53+00",5.4,6.4,,39.4,-126,-129,-51,1029.59,36.8,0
"2020-02-09 08:15:53+00",4.5,5.5,,38.4,-123,-155,15,1029.71,36.1,0
"2020-02-09 08:20:53+00",4.1,5.1,,38.5,-106,-150,16,1029.64,35.6,0
"2020-02-09 08:25:53+00",3.6,3.6,,38.5,-67,-169,27,1029.58,35.3,0
"2020-02-09 08:30:53+00",4.4,4.4,,38.7,-71,-159,-7,1029.54,35.5,0
"2020-02-09 08:35:53+00",4.4,5.4,,38.7,-61,-158,-9,1029.45,36,0
"2020-02-09 08:40:53+00",4.7,4.7,,38.7,-76,-175,-3,1029.49,36.3,0
"2020-02-09 08:45:53+00",4.3,5.3,,38.6,-90,-179,19,1029.46,36.2,0
"2020-02-09 08:50:53+00",3.7,4.7,,38.2,-114,-99,7,1029.58,35.8,0
"2020-02-09 08:55:53+00",2.9,2.9,,37.8,-96,-40,17,1029.56,35.3,0
"2020-02-09 09:00:53+00",2.8,2.8,,37.9,-103,-30,-3,1029.59,34.8,0
"2020-02-09 09:05:53+00",3.0,3.0,,38,-115,7,5,1029.66,34.3,0
"2020-02-09 09:10:53+00",2.6,2.6,,37.9,-107,60,-9,1029.72,33.9,0
"2020-02-09 09:15:53+00",2.1,2.1,,37.7,-68,47,1,1029.82,33.7,0
"2020-02-09 09:20:53+00",1.8,1.8,,37.7,-43,49,7,1029.86,33.7,0
"2020-02-09 09:25:53+00",1.5,1.5,,37.6,-25,47,1,1029.86,33.7,0
"2020-02-09 09:30:53+00",2.6,2.6,,37.4,30,88,-1,1029.9,33.6,0
"2020-02-09 09:35:53+00",1.7,1.7,,37.4,23,50,-3,1029.9,33.6,0
"2020-02-09 09:40:53+00",1.8,1.8,,37.4,29,55,0,1029.96,33.6,0
"2020-02-09 09:45:53+00",1.9,2.9,,37.5,38,49,0,1030.08,33.7,0
"2020-02-09 09:50:53+00",2.0,2.0,,37.6,53,48,-3,1030.13,33.4,0
"2020-02-09 09:55:53+00",1.5,1.5,,37.7,34,31,-3,1030.22,33.5,0
"2020-02-09 10:00:53+00",2.7,3.7,,37.8,91,60,-3,1030.26,33.2,0
"2020-02-09 10:05:53+00",2.6,2.6,,37.8,90,56,-3,1030.39,32.9,0
"2020-02-09 10:10:53+00",3.0,3.0,,37.9,104,64,-5,1030.44,33,0
"2020-02-09 10:15:53+00",2.8,3.8,,38,111,37,-5,1030.41,32.8,0
"2020-02-09 10:20:53+00",2.7,2.7,,38.1,100,44,-4,1030.56,33,0
"2020-02-09 10:25:53+00",2.8,2.8,,38.2,105,44,-4,1030.52,32.9,0
"2020-02-09 10:30:53+00",3.3,4.3,,38.3,132,57,-5,1030.54,32.9,0
"2020-02-09 10:35:53+00",3.9,3.9,,38.3,153,58,-6,1030.57,33.1,0
"2020-02-09 10:40:53+00",4.5,4.5,,38,182,74,-5,1030.51,33,0
"2020-02-09 10:45:53+00",4.3,4.3,,38.2,170,57,-3,1030.7,32.8,0
"2020-02-09 10:50:53+00",4.0,4.0,,38.3,159,58,-2,1030.69,33,0
"2020-02-09 10:55:53+00",4.4,4.4,,38.1,164,90,6,1030.77,32.8,0
"2020-02-09 11:00:53+00",4.2,5.2,,38.1,159,78,2,1030.9,32.8,0
"2020-02-09 11:05:53+00",4.3,4.3,,38.1,169,80,-5,1030.99,33,0
"2020-02-09 11:10:53+00",4.2,5.2,,38.1,170,49,-3,1031.04,33,0
"2020-02-09 11:15:53+00",4.0,4.0,,38.3,169,16,-1,1030.99,32.8,0
"2020-02-09 11:20:53+00",3.7,4.7,,38.5,152,-19,-2,1031.04,32.6,0
"2020-02-09 11:25:53+00",3.6,3.6,,39,138,-60,-2,1031.08,32.7,0
"2020-02-09 11:30:53+00",3.5,3.5,,39.3,125,-73,0,1031.2,32.9,0
"2020-02-09 11:35:53+00",3.1,3.1,,39.4,95,-85,-2,1031.23,33.3,0
"2020-02-09 11:40:53+00",3.9,3.9,,39.6,79,-143,-7,1031.35,33.8,0
"2020-02-09 11:45:53+00",4.5,5.5,,39.8,39,-185,-6,1031.34,34.4,0
"2020-02-09 11:50:53+00",5.0,6.0,,39.6,34,-208,-10,1031.25,35,0
"2020-02-09 11:55:53+00",5.9,6.9,,39.6,22,-252,-12,1031.47,35.3,0
"2020-02-09 12:00:53+00",6.7,6.7,,40.2,10,-283,-7,1031.42,35.7,0
"2020-02-09 12:05:53+00",6.7,7.7,,40.5,21,-282,-10,1031.54,36.2,0
"2020-02-09 12:10:53+00",6.5,7.5,,40.7,27,-270,-5,1031.48,36.8,0
"2020-02-09 12:15:53+00",6.2,7.2,,40.7,19,-262,-4,1031.57,37.1,0
"2020-02-09 12:20:53+00",6.3,7.3,,40.7,22,-267,-6,1031.55,37.5,0
"2020-02-09 12:25:53+00",6.8,7.8,,40.9,24,-300,2,1031.5,37.6,0
"2020-02-09 12:30:53+00",7.4,8.4,,41.1,35,-352,20,1031.59,38,0
"2020-02-09 12:35:53+00",7.6,8.6,,41.4,30,-330,-1,1031.59,38.8,0
"2020-02-09 12:40:53+00",7.7,8.7,,41.5,35,-345,3,1031.62,39.4,0
"2020-02-09 12:45:53+00",7.6,9.6,,41.6,51,-350,15,1031.75,40.1,0
"2020-02-09 12:50:53+00",8.2,10.2,,41.7,85,-400,43,1031.74,40.7,0
"2020-02-09 12:55:53+00",7.9,8.9,,41.9,82,-348,16,1031.69,41.2,0
"2020-02-09 13:00:53+00",8.2,10.2,,42.1,103,-405,38,1031.71,41.8,0
"2020-02-09 13:05:53+00",8.1,9.1,,42.3,81,-371,6,1031.71,42.1,0
"2020-02-09 13:10:53+00",8.1,11.1,,42.5,70,-354,-10,1031.72,42.5,0
"2020-02-09 13:15:53+00",7.7,9.7,,42.6,37,-313,12,1031.77,42.8,0
"2020-02-09 13:20:53+00",6.8,8.8,,42.8,47,-300,21,1031.81,43.1,0
"2020-02-09 13:25:53+00",7.9,9.9,,43,32,-361,9,1031.81,43.3,0
"2020-02-09 13:30:53+00",8.8,9.8,,42.9,44,-382,9,1031.93,43.5,0.7
"2020-02-09 13:35:53+00",9.1,11.1,,43.2,69,-404,-4,1031.93,43.7,1
"2020-02-09 13:40:53+00",7.8,9.8,,43.2,22,-339,4,1031.96,43.8,5.3
"2020-02-09 13:45:53+00",10.3,11.3,,43.1,23,-447,-16,1032.02,43.7,14
"2020-02-09 13:50:53+00",6.0,7.0,,43.4,-27,-251,9,1032.11,44,23
"2020-02-09 13:55:53+00",6.1,8.1,,43.7,-15,-252,8,1032.22,44.3,27
"2020-02-09 14:00:53+00",8.2,10.2,,43.6,7,-336,-21,1032.24,44.4,36.9
"2020-02-09 14:05:53+00",9.9,10.9,,43.5,69,-424,-8,1032.22,44.5,44.3
"2020-02-09 14:10:53+00",9.1,11.1,,43.5,32,-381,-2,1032.25,44.4,50.5
"2020-02-09 14:15:53+00",6.5,8.5,,43.9,23,-294,10,1032.22,44.7,57
"2020-02-09 14:20:53+00",10.5,12.5,,43.8,26,-447,-20,1032.31,44.7,60.7
"2020-02-09 14:25:53+00",9.4,11.4,,43.9,58,-398,-11,1032.22,44.8,62.5
"2020-02-09 14:30:53+00",8.4,12.4,,44,34,-353,-1,1032.33,45,69.2
"2020-02-09 14:35:53+00",10.4,12.4,,43.9,80,-477,-9,1032.25,45,67.2
"2020-02-09 14:40:53+00",9.7,12.7,,44.1,-110,-382,-20,1032.47,45.2,86.5
"2020-02-09 14:45:53+00",8.0,11.0,,44.3,-58,-324,-4,1032.44,45.4,89.4
"2020-02-09 14:50:53+00",11.6,12.6,,44.3,-178,-458,-4,1032.47,45.6,109
"2020-02-09 14:55:53+00",10.6,12.6,,43.9,-419,-251,56,1032.43,45.7,115
"2020-02-09 15:00:53+00",10.7,12.7,,42.9,-344,-343,61,1032.59,45.5,66.1
"2020-02-09 15:05:53+00",10.8,11.8,,42.7,-393,-253,-4,1032.51,45.5,116.3
"2020-02-09 15:10:53+00",9.3,11.3,,42.8,-298,-275,27,1032.57,45.4,114
"2020-02-09 15:15:53+00",10.1,12.1,,42.8,-407,-234,19,1032.54,45.6,122.2
"2020-02-09 15:20:53+00",10.3,11.3,,42.7,-412,-232,17,1032.59,46,128.1
"2020-02-09 15:25:53+00",11.1,12.1,,42.8,-428,-255,18,1032.58,46.2,131.7
"2020-02-09 15:30:53+00",10.4,12.4,,42.9,-390,-242,21,1032.63,46.6,137
"2020-02-09 15:35:53+00",10.6,11.6,,43.2,-411,-253,20,1032.68,46.7,141.4
"2020-02-09 15:40:53+00",9.3,11.3,,43.2,-397,-154,54,1032.59,47.4,146.8
"2020-02-09 15:45:53+00",7.8,8.8,,43.3,-310,-176,48,1032.62,48.1,147.9
"2020-02-09 15:50:53+00",9.6,11.6,,43.4,-419,-201,15,1032.63,48.4,153.3
"2020-02-09 15:55:53+00",10.8,12.8,,43.7,-377,-275,10,1032.68,48.4,156.9
"2020-02-09 16:00:53+00",8.5,9.5,,44.1,-302,-230,98,1032.69,48.7,157.7
"2020-02-09 16:05:53+00",10.7,12.7,,44,-409,-256,12,1032.66,48.4,159
"2020-02-09 16:10:53+00",10.3,12.3,,44,-355,-291,31,1032.63,48.4,162.8
"2020-02-09 16:15:53+00",9.2,11.2,,44.3,-283,-293,40,1032.65,47.9,167
"2020-02-09 16:20:53+00",9.0,11.0,,44.3,-305,-242,60,1032.6,47.7,158.4
"2020-02-09 16:25:53+00",9.2,11.2,,44.5,-367,-216,48,1032.55,48.3,169.7
"2020-02-09 16:30:53+00",9.9,11.9,,44.4,-309,-306,-6,1032.53,48,168.3
"2020-02-09 16:35:53+00",9.5,11.5,,44.5,-340,-228,15,1032.5,48.3,172.6
"2020-02-09 16:40:53+00",8.7,10.7,,44.3,-328,-214,9,1032.48,48.8,172.2
"2020-02-09 16:45:53+00",10.5,11.5,,44.3,-325,-310,-6,1032.42,48.6,171.4
"2020-02-09 16:50:53+00",8.4,10.4,,44.6,-295,-213,-2,1032.37,48.3,173.2
"2020-02-09 16:55:53+00",8.8,10.8,,44.9,-247,-324,12,1032.36,48.5,172.5
"2020-02-09 17:00:53+00",10.4,11.4,,44.7,-396,-243,19,1032.35,48.7,170.6
"2020-02-09 17:05:53+00",10.0,13.0,,45.1,-351,-247,40,1032.3,48.7,168.3
"2020-02-09 17:10:53+00",9.4,12.4,,45,-282,-306,37,1032.31,48.7,170.1
"2020-02-09 17:15:53+00",11.0,13.0,,45.1,-348,-325,18,1032.25,48.4,164.5
"2020-02-09 17:20:53+00",13.2,15.2,,45.1,-421,-413,0,1032.26,47.9,170.2
"2020-02-09 17:25:53+00",11.5,13.5,,45.1,-355,-370,13,1032.25,48,165.4
"2020-02-09 17:30:53+00",12.8,14.8,,45.1,-465,-321,43,1032.16,48,167.4
"2020-02-09 17:35:53+00",11.5,13.5,,45.4,-372,-340,4,1032.06,48,159.1
"2020-02-09 17:40:53+00",11.5,13.5,,45.4,-355,-357,8,1032.05,48,156.2
"2020-02-09 17:45:53+00",11.0,14.0,,45.8,-297,-395,24,1032.1,48.3,151.8
"2020-02-09 17:50:53+00",14.5,17.5,,45.6,-325,-529,-6,1032.04,47.9,148.9
"2020-02-09 17:55:53+00",12.5,16.5,,46.1,-366,-454,5,1031.88,48.3,148.2
"2020-02-09 18:00:53+00",13.9,15.9,,46,-372,-492,3,1031.87,48.3,142.8
"2020-02-09 18:05:53+00",10.8,12.8,,45.9,-56,-454,-29,1031.82,47.8,138.3
"2020-02-09 18:10:53+00",8.7,12.7,,46.2,-108,-363,16,1031.79,48,132.9
"2020-02-09 18:15:53+00",12.0,15.0,,46.3,29,-529,-11,1031.66,47.9,127.8
"2020-02-09 18:20:53+00",11.8,17.8,,45.9,17,-474,16,1031.56,47.3,124.9
"2020-02-09 18:25:53+00",10.1,14.1,,45.9,45,-423,0,1031.49,47.2,120
"2020-02-09 18:30:53+00",10.2,12.2,,46,-13,-412,6,1031.43,47.4,117.8
"2020-02-09 18:35:53+00",11.9,14.9,,45.7,36,-504,-14,1031.38,47.1,110.1
"2020-02-09 18:40:53+00",12.8,15.8,,45.2,134,-560,-17,1031.28,46.8,106.8
"2020-02-09 18:45:53+00",12.9,15.9,,44.9,70,-548,9,1031.37,46.4,105
"2020-02-09 18:50:53+00",8.9,11.9,,45.5,27,-373,5,1031.19,46.7,100.6
"2020-02-09 18:55:53+00",12.8,15.8,,45,137,-620,75,1031.28,46.5,95.5
"2020-02-09 19:00:53+00",14.0,17.0,,45.5,-136,-585,-17,1031.15,46.8,90.9
"2020-02-09 19:05:53+00",14.4,17.4,,45.6,-65,-608,-25,1031.17,46.9,83.8
"2020-02-09 19:10:53+00",10.7,14.7,,45,8,-454,17,1031.09,46.3,81.6
"2020-02-09 19:15:53+00",10.2,15.2,,45.6,-20,-426,-4,1031.09,46.7,75.4
"2020-02-09 19:20:53+00",10.1,14.1,,45.7,-78,-436,9,1030.99,46.8,71
"2020-02-09 19:25:53+00",13.4,15.4,,45.4,67,-608,8,1031.02,46.6,69.8
"2020-02-09 19:30:53+00",12.4,17.4,,45.4,31,-543,40,1030.88,46.4,64.1
"2020-02-09 19:35:53+00",11.3,14.3,,45.7,-69,-465,18,1030.88,46.6,55.9
"2020-02-09 19:40:53+00",14.5,18.5,,45.6,8,-653,15,1030.88,46.6,50.6
"2020-02-09 19:45:53+00",13.1,16.1,,45.5,37,-572,21,1030.77,46.5,45.3
"2020-02-09 19:50:53+00",12.7,16.7,,45.4,14,-587,45,1030.65,46.3,42.1
"2020-02-09 19:55:53+00",12.7,19.7,,44.8,63,-694,64,1030.67,45.7,35.3
"2020-02-09 20:00:53+00",15.7,19.7,,44,109,-918,133,1030.73,44.9,30.6
"2020-02-09 20:05:53+00",12.5,17.5,,44.4,-41,-586,35,1030.72,45.1,23.3
"2020-02-09 20:10:53+00",16.0,19.0,,44.6,453,-1289,458,1030.72,45.3,17.3
"2020-02-09 20:15:53+00",16.8,19.8,,44,298,-1153,236,1030.74,44.8,9.1
"2020-02-09 20:20:53+00",11.9,15.9,,44,88,-542,43,1030.81,44.6,1.8
"2020-02-09 20:25:53+00",11.7,14.7,,44.2,-87,-472,14,1030.69,44.8,1.4
"2020-02-09 20:30:53+00",11.7,15.7,,44.8,-65,-490,10,1030.73,45.1,0.7
"2020-02-09 20:35:53+00",10.7,13.7,,44.9,-18,-454,13,1030.67,45.3,0.2
"2020-02-09 20:40:53+00",11.3,15.3,,44.5,-14,-499,-2,1030.72,45,0
"2020-02-09 20:45:53+00",12.7,16.7,,43.8,86,-522,34,1030.8,44.5,0
"2020-02-09 20:50:53+00",14.8,17.8,,43.4,210,-900,143,1030.73,43.9,0
"2020-02-09 20:55:53+00",15.2,17.2,,43.4,176,-823,83,1030.79,43.9,0
"2020-02-09 21:00:53+00",13.9,16.9,,44,-5,-621,1,1030.88,44.1,0
"2020-02-09 21:05:53+00",13.7,17.7,,44.1,24,-668,37,1030.95,44.2,0
"2020-02-09 21:10:53+00",12.6,16.6,,44,-24,-526,-21,1030.9,44.2,0
"2020-02-09 21:15:53+00",12.2,17.2,,44.1,-57,-494,-14,1030.9,44.1,0
"2020-02-09 21:20:53+00",13.5,18.5,,44.1,-39,-578,-8,1031.01,44.1,0
"2020-02-09 21:25:53+00",13.2,16.2,,43.8,3,-576,4,1031.04,43.8,0
"2020-02-09 21:30:53+00",11.7,15.7,,43.7,-104,-497,8,1031.18,43.7,0
"2020-02-09 21:35:53+00",13.0,16.0,,43.7,-44,-526,-9,1031.08,43.7,0
"2020-02-09 21:40:53+00",12.1,15.1,,43.5,-34,-513,-17,1031,43.5,0
"2020-02-09 21:45:53+00",13.4,17.4,,43.2,55,-660,28,1030.93,43.2,0
"2020-02-09 21:50:53+00",10.8,13.8,,43.1,-12,-454,-23,1031.01,43,0
"2020-02-09 21:55:53+00",12.7,16.7,,43,-3,-560,-15,1031.01,42.8,0
"2020-02-09 22:00:53+00",11.1,15.1,,42.9,-35,-472,-9,1031.05,42.8,0
"2020-02-09 22:05:53+00",12.1,14.1,,42.9,-29,-520,-27,1031.15,42.7,0
"2020-02-09 22:10:53+00",10.1,13.1,,42.8,-52,-429,-8,1031.31,42.5,0
"2020-02-09 22:15:53+00",9.9,12.9,,42.7,-63,-403,-15,1031.33,42.4,0
"2020-02-09 22:20:53+00",11.3,13.3,,42.5,-75,-477,-21,1031.45,42.1,0
"2020-02-09 22:25:53+00",11.8,14.8,,42.4,-23,-489,-8,1031.48,41.9,0
"2020-02-09 22:30:53+00",11.1,14.1,,42.4,-41,-477,-17,1031.49,41.8,0
"2020-02-09 22:35:53+00",10.6,13.6,,42.3,-47,-446,-10,1031.56,41.7,0
"2020-02-09 22:40:53+00",10.1,13.1,,42.2,-75,-421,-19,1031.66,41.6,0
"2020-02-09 22:45:53+00",9.0,11.0,,42.1,-47,-377,-9,1031.72,41.5,0
"2020-02-09 22:50:53+00",9.8,13.8,,42.1,-84,-403,-6,1031.69,41.5,0
"2020-02-09 22:55:53+00",9.2,14.2,,42,-88,-394,-2,1031.8,41.4,0
"2020-02-09 23:00:53+00",9.4,12.4,,42,-85,-393,-10,1031.94,41.4,0
"2020-02-09 23:05:53+00",8.9,10.9,,41.8,-90,-363,0,1032.02,41.1,0
"2020-02-09 23:10:53+00",9.3,13.3,,41.6,-104,-395,-6,1032.07,40.9,0
"2020-02-09 23:15:53+00",8.8,11.8,,41.4,-109,-345,0,1032.21,40.6,0
"2020-02-09 23:20:53+00",9.2,11.2,,41.3,-112,-378,1,1032.2,40.4,0
"2020-02-09 23:25:53+00",9.2,11.2,,41.1,-93,-379,-5,1032.38,40.2,0
"2020-02-09 23:30:53+00",9.1,11.1,,40.9,-118,-380,-10,1032.35,40,0
"2020-02-09 23:35:53+00",9.2,11.2,,40.9,-123,-380,-3,1032.36,40,0
"2020-02-09 23:40:53+00",8.9,11.9,,41,-92,-361,-2,1032.43,40,0
"2020-02-09 23:45:53+00",9.7,11.7,,41.1,-89,-405,-8,1032.42,40.1,0
"2020-02-09 23:50:53+00",9.4,10.4,,41.2,-83,-391,-11,1032.34,40.2,0
"2020-02-09 23:55:53+00",8.7,10.7,,41.1,-84,-364,-1,1032.4,40.1,0
